Home   Weather   Gunsan   Past weeks

Flag for South Korea Past Weather in Gunsan, South Korea — Yesterday and Last 2 Weeks

Now
38 °F

Sunny.


Feels Like: 35 °F
Forecast: 26 / 44 °F
Wind: 3 mph from Northeast

Location: Kunsan Ab

Current Time: Dec 10, 2016 at 12:07:52 pm

Latest Report: Dec 10, 2016 at 10:58 am


Visibility: 10 mi

Pressure: 30.36 "Hg

Humidity: 53%

Dew Point: 22 °F

Location of GunsanLocation

Past Weather in Gunsan — Graph

°F

Gunsan Temperature Yesterday

Maximum temperature yesterday: 48 °F (at 2:58 am)
Minimum temperature yesterday: 33 °F (at 7:58 pm)
Average temperature yesterday: 42 °F

High & Low Weather Summary for the Past Weeks

 TemperatureHumidityPressure
High56 °F (Dec 5, 11:58 am)100% (Nov 26, 3:51 pm)30.56 "Hg (Nov 26, 3:51 pm)
Low26 °F (Dec 10, 7:58 am)32% (Dec 1, 2:59 pm)29.93 "Hg (Dec 9, 12:58 am)
Average41 °F74%30.27 "Hg
* Reported Nov 25 10:58 am — Dec 10 10:58 am, Gunsan, Weather by CustomWeather, © 2016

Note: Actual official high and low records may vary slightly from our data, if they occured in-between our weather recording intervals... More about our weather records

Advertising

Gunsan Weather History for the Previous 24 Hours

Scroll right to see more
 ConditionsComfort  
Time TempWeatherWind HumidityBarometerVisibility
10:58 am
Sat, Dec 10
38 °FSunny.3 mph53%30.36 "Hg10 mi
9:58 am35 °FSunny.3 mph57%30.36 "Hg10 mi
8:58 am32 °FSunny.2 mph66%30.36 "Hg10 mi
7:58 am26 °FSunny.3 mph84%30.34 "Hg10 mi
6:58 am28 °FClear.5 mph79%30.33 "Hg10 mi
5:58 am28 °FClear.3 mph81%30.32 "Hg10 mi
4:58 am29 °FClear.5 mph79%30.32 "Hg10 mi
3:58 am30 °FClear.6 mph76%30.31 "Hg10 mi
1:58 am29 °FClear.6 mph77%30.30 "Hg10 mi
12:58 am34 °FClear.6 mph63%30.29 "Hg10 mi
11:58 pm
Fri, Dec 9
34 °FClear.3 mph65%30.28 "Hg10 mi
10:58 pm35 °FClear.6 mph62%30.28 "Hg10 mi
9:58 pm36 °FClear.9 mph58%30.27 "Hg10 mi
8:58 pm36 °FClear.8 mph60%30.26 "Hg10 mi
7:58 pm33 °FClear.8 mph68%30.25 "Hg10 mi
6:58 pm34 °FClear.8 mph68%30.23 "Hg10 mi
5:58 pm38 °FClear.10 mph55%30.21 "Hg10 mi
4:58 pm41 °FSunny.13 mph54%30.19 "Hg10 mi
3:58 pm43 °FSunny.17 mph51%30.18 "Hg10 mi
2:58 pm44 °FSunny.21 mph41%30.16 "Hg9 mi
1:58 pm46 °FSunny.18 mph51%30.15 "Hg10 mi
12:58 pm46 °FScattered clouds.17 mph59%30.15 "Hg7 mi
Weather by CustomWeather, © 2016

See weather overviewHow to use our weather pages